STARLINK-5859 (55915 NORAD) Tracking and Keplerian Element Data

This shows tracking and keplerian element data for the satellite.

Feedback or suggestion? Click here.




ElementValue
Catalog55915
NameSTARLINK-5859
Epoch Orbit840
Epoch Day127.25001157
Epoch Year2023
RAAN41.2848
Inclination70.0016
Eccentricity0.0003144
Argument of Perigee271.4135
Mean Anonmoly17.5803
Mean Motion15.29477126
Decay Rate-0.00926017
L11 55915U 23037B 23127.25001157 -.00926017 00000+0 -35301-1 0 9995
L22 55915 70.0016 41.2848 0003144 271.4135 17.5803 15.29477126 8403



Live tracking and technical data element details for STARLINK-5859 (NORAD 55915). STARLINK-5859 can be tracked NOW for your location showing map with azimuth and elevation plus other details from your city location.







IsCatalogInMostPopularTable: catalog: 55915, numindb: 8
Update: records affected: 1



GetName: 55915 STARLINK-5859

Hit Count: updated at: Tue, 06 Jun 2023 02:35:07 GMT